Starlink 33941

operational
NORAD ID: 63765 Int'l Des: 2025-089 Owner: SPXS Country: US Constellation: starlink
LEOCIRCULAR

Über Starlink 33941

Beschreibung wird geladen...

Live-Position

3D-Globus wird geladen...

Nächste Überflüge

Höhenverlauf

Altitude vs Time

uPlot chart will show altitude changes over time

Zweizeiliger Elementsatz

1 63765U 25089Q 25353.83892282 .00017691 00000-0 65071-3 0 9997
2 63765 42.9998 136.3445 0001752 273.8331 86.2321 15.27586993 36734
Epoch: 19. Dez. 2025 • Age: 18 hours

Aktueller Status

Höhe 486.1 km
Geschwindigkeit 7.63 km/s
Subsatellitenpunkt 37.91°N, 41.92°W
Startdatum 29. Apr. 2025
Alter 0.6 years
Typ internet

Technische Details

Klassifizierung Payload
Masse 575.00 kg
Trockenmasse 530.00 kg
Gesamtmasse 575.00 kg
Länge 0.30 m
Durchmesser 4.10 m
Spannweite 29.00 m
Form Box + pan
Hersteller SPXS
Bus-Typ Starlink V2MO
Phasenstatus In Orbit
Besitzer/Staat SPXS/US

Große Konstellationen

Loading constellations...